Year,Month,Day,Hour,Minute,Value (Times are PST for temperature in C)
2006,08,24,00,00,13.20
2006,08,24,00,01,13.20
2006,08,24,00,02,13.30
2006,08,24,00,03,13.30
2006,08,24,00,04,13.30
2006,08,24,00,05,13.30
2006,08,24,00,06,13.30
2006,08,24,00,07,13.30
2006,08,24,00,08,13.30
2006,08,24,00,09,13.30
2006,08,24,00,10,13.30
2006,08,24,00,11,13.30
2006,08,24,00,12,13.30
2006,08,24,00,13,13.30
2006,08,24,00,14,13.30
2006,08,24,00,15,13.30
2006,08,24,00,16,13.30
2006,08,24,00,17,13.30
2006,08,24,00,18,13.30
2006,08,24,00,19,13.30
2006,08,24,00,20,13.30
2006,08,24,00,21,13.30
2006,08,24,00,22,13.30
2006,08,24,00,23,13.30
2006,08,24,00,24,13.30
2006,08,24,00,25,13.30
2006,08,24,00,26,13.30
2006,08,24,00,27,13.30
2006,08,24,00,28,13.30
2006,08,24,00,29,13.30
2006,08,24,00,30,13.30
2006,08,24,00,31,13.30
2006,08,24,00,32,13.30
2006,08,24,00,33,13.30
2006,08,24,00,34,13.30
2006,08,24,00,35,13.30
2006,08,24,00,36,13.30
2006,08,24,00,37,13.30
2006,08,24,00,38,13.30
2006,08,24,00,39,13.30
2006,08,24,00,40,13.30
2006,08,24,00,41,13.30
2006,08,24,00,42,13.30
2006,08,24,00,43,13.30
2006,08,24,00,44,13.30
2006,08,24,00,45,13.30
2006,08,24,00,46,13.30
2006,08,24,00,47,13.30
2006,08,24,00,48,13.30
2006,08,24,00,49,13.30
2006,08,24,00,50,13.30
2006,08,24,00,51,13.30
2006,08,24,00,52,13.30
2006,08,24,00,53,13.30
2006,08,24,00,54,13.30
2006,08,24,00,55,13.30
2006,08,24,00,56,13.30
2006,08,24,00,57,13.30
2006,08,24,00,58,13.30
2006,08,24,00,59,13.20
2006,08,24,01,00,13.20
2006,08,24,01,01,13.10
2006,08,24,01,02,13.10
2006,08,24,01,03,13.10
2006,08,24,01,04,13.10
2006,08,24,01,05,13.10
2006,08,24,01,06,13.10
2006,08,24,01,07,13.10
2006,08,24,01,08,13.10
2006,08,24,01,09,13.10
2006,08,24,01,10,13.10
2006,08,24,01,11,13.10
2006,08,24,01,12,13.10
2006,08,24,01,13,13.10
2006,08,24,01,14,13.10
2006,08,24,01,15,13.10
2006,08,24,01,16,13.10
2006,08,24,01,17,13.10
2006,08,24,01,18,13.10
2006,08,24,01,19,13.10
2006,08,24,01,20,13.10
2006,08,24,01,21,13.10
2006,08,24,01,22,13.10
2006,08,24,01,23,13.10
2006,08,24,01,24,13.10
2006,08,24,01,25,13.10
2006,08,24,01,26,13.10
2006,08,24,01,27,13.10
2006,08,24,01,28,13.00
2006,08,24,01,29,13.00
2006,08,24,01,30,13.00
2006,08,24,01,31,13.00
2006,08,24,01,32,13.00
2006,08,24,01,33,13.00
2006,08,24,01,34,13.00
2006,08,24,01,35,13.00
2006,08,24,01,36,13.00
2006,08,24,01,37,13.00
2006,08,24,01,38,13.00
2006,08,24,01,39,13.00
2006,08,24,01,40,13.00
2006,08,24,01,41,13.00
2006,08,24,01,42,13.00
2006,08,24,01,43,12.90
2006,08,24,01,44,12.90
2006,08,24,01,45,12.90
2006,08,24,01,46,12.90
2006,08,24,01,47,12.90
2006,08,24,01,48,12.90
2006,08,24,01,49,12.90
2006,08,24,01,50,12.90
2006,08,24,01,51,12.90
2006,08,24,01,52,12.90
2006,08,24,01,53,12.90
2006,08,24,01,54,12.90
2006,08,24,01,55,12.80
2006,08,24,01,56,12.80
2006,08,24,01,57,12.80
2006,08,24,01,58,12.80
2006,08,24,01,59,12.80
2006,08,24,02,00,12.80
2006,08,24,02,01,12.80
2006,08,24,02,02,12.80
2006,08,24,02,03,12.80
2006,08,24,02,04,12.80
2006,08,24,02,05,12.80
2006,08,24,02,06,12.80
2006,08,24,02,07,12.80
2006,08,24,02,08,12.80
2006,08,24,02,09,12.90
2006,08,24,02,10,12.90
2006,08,24,02,11,12.90
2006,08,24,02,12,12.90
2006,08,24,02,13,12.90
2006,08,24,02,14,12.90
2006,08,24,02,15,12.90
2006,08,24,02,16,12.90
2006,08,24,02,17,12.90
2006,08,24,02,18,12.90
2006,08,24,02,19,12.90
2006,08,24,02,20,12.90
2006,08,24,02,21,12.90
2006,08,24,02,22,12.90
2006,08,24,02,23,12.90
2006,08,24,02,24,12.90
2006,08,24,02,25,12.80
2006,08,24,02,26,12.80
2006,08,24,02,27,12.80
2006,08,24,02,28,12.80
2006,08,24,02,29,12.80
2006,08,24,02,30,12.80
2006,08,24,02,31,12.80
2006,08,24,02,32,12.70
2006,08,24,02,33,12.70
2006,08,24,02,34,12.70
2006,08,24,02,35,12.70
2006,08,24,02,36,12.70
2006,08,24,02,37,12.60
2006,08,24,02,38,12.60
2006,08,24,02,39,12.60
2006,08,24,02,40,12.60
2006,08,24,02,41,12.60
2006,08,24,02,42,12.60
2006,08,24,02,43,12.50
2006,08,24,02,44,12.50
2006,08,24,02,45,12.50
2006,08,24,02,46,12.50
2006,08,24,02,47,12.50
2006,08,24,02,48,12.50
2006,08,24,02,49,12.50
2006,08,24,02,50,12.50
2006,08,24,02,51,12.50
2006,08,24,02,52,12.50
2006,08,24,02,53,12.50
2006,08,24,02,54,12.40
2006,08,24,02,55,12.40
2006,08,24,02,56,12.40
2006,08,24,02,57,12.40
2006,08,24,02,58,12.30
2006,08,24,02,59,12.30
2006,08,24,03,00,12.30
2006,08,24,03,01,12.30
2006,08,24,03,02,12.30
2006,08,24,03,03,12.20
2006,08,24,03,04,12.20
2006,08,24,03,05,12.10
2006,08,24,03,06,12.10
2006,08,24,03,07,12.00
2006,08,24,03,08,12.00
2006,08,24,03,09,12.00
2006,08,24,03,10,11.90
2006,08,24,03,11,11.90
2006,08,24,03,12,11.90
2006,08,24,03,13,11.90
2006,08,24,03,14,11.90
2006,08,24,03,15,11.80
2006,08,24,03,16,11.80
2006,08,24,03,17,11.80
2006,08,24,03,18,11.80
2006,08,24,03,19,11.80
2006,08,24,03,20,11.80
2006,08,24,03,21,11.80
2006,08,24,03,22,11.80
2006,08,24,03,23,11.80
2006,08,24,03,24,11.80
2006,08,24,03,25,11.80
2006,08,24,03,26,11.70
2006,08,24,03,27,11.70
2006,08,24,03,28,11.70
2006,08,24,03,29,11.70
2006,08,24,03,30,11.70
2006,08,24,03,31,11.70
2006,08,24,03,32,11.70
2006,08,24,03,33,11.70
2006,08,24,03,34,11.60
2006,08,24,03,35,11.60
2006,08,24,03,36,11.60
2006,08,24,03,37,11.60
2006,08,24,03,38,11.60
2006,08,24,03,39,11.60
2006,08,24,03,40,11.60
2006,08,24,03,41,11.60
2006,08,24,03,42,11.60
2006,08,24,03,43,11.60
2006,08,24,03,44,11.60
2006,08,24,03,45,11.60
2006,08,24,03,46,11.60
2006,08,24,03,47,11.60
2006,08,24,03,48,11.60
2006,08,24,03,49,11.60
2006,08,24,03,50,11.60
2006,08,24,03,51,11.60
2006,08,24,03,52,11.60
2006,08,24,03,53,11.60
2006,08,24,03,54,11.60
2006,08,24,03,55,11.60
2006,08,24,03,56,11.50
2006,08,24,03,57,11.40
2006,08,24,03,58,11.50
2006,08,24,03,59,11.60
2006,08,24,04,00,11.60
2006,08,24,04,01,11.60
2006,08,24,04,02,11.60
2006,08,24,04,03,11.60
2006,08,24,04,04,11.60
2006,08,24,04,05,11.60
2006,08,24,04,06,11.60
2006,08,24,04,07,11.60
2006,08,24,04,08,11.60
2006,08,24,04,09,11.60
2006,08,24,04,10,11.60
2006,08,24,04,11,11.60
2006,08,24,04,12,11.60
2006,08,24,04,13,11.60
2006,08,24,04,14,11.60
2006,08,24,04,15,11.60
2006,08,24,04,16,11.60
2006,08,24,04,17,11.60
2006,08,24,04,18,11.60
2006,08,24,04,19,11.60
2006,08,24,04,20,11.60
2006,08,24,04,21,11.60
2006,08,24,04,22,11.60
2006,08,24,04,23,11.60
2006,08,24,04,24,11.60
2006,08,24,04,25,11.60
2006,08,24,04,26,11.60
2006,08,24,04,27,11.60
2006,08,24,04,28,11.60
2006,08,24,04,29,11.60
2006,08,24,04,30,11.60
2006,08,24,04,31,11.60
2006,08,24,04,32,11.60
2006,08,24,04,33,11.60
2006,08,24,04,34,11.60
2006,08,24,04,35,11.60
2006,08,24,04,36,11.60
2006,08,24,04,37,11.60
2006,08,24,04,38,11.60
2006,08,24,04,39,11.60
2006,08,24,04,40,11.60
2006,08,24,04,41,11.60
2006,08,24,04,42,11.60
2006,08,24,04,43,11.60
2006,08,24,04,44,11.60
2006,08,24,04,45,11.60
2006,08,24,04,46,11.60
2006,08,24,04,47,11.60
2006,08,24,04,48,11.60
2006,08,24,04,49,11.60
2006,08,24,04,50,11.60
2006,08,24,04,51,11.60
2006,08,24,04,52,11.60
2006,08,24,04,53,11.60
2006,08,24,04,54,11.60
2006,08,24,04,55,11.60
2006,08,24,04,56,11.60
2006,08,24,04,57,11.60
2006,08,24,04,58,11.60
2006,08,24,04,59,11.60
2006,08,24,05,00,11.60
2006,08,24,05,01,11.70
2006,08,24,05,02,11.70
2006,08,24,05,03,11.70
2006,08,24,05,04,11.70
2006,08,24,05,05,11.80
2006,08,24,05,06,11.80
2006,08,24,05,07,11.80
2006,08,24,05,08,11.80
2006,08,24,05,09,11.80
2006,08,24,05,10,11.80
2006,08,24,05,11,11.80
2006,08,24,05,12,11.90
2006,08,24,05,13,11.90
2006,08,24,05,14,11.90
2006,08,24,05,15,11.90
2006,08,24,05,16,11.90
2006,08,24,05,17,12.00
2006,08,24,05,18,12.00
2006,08,24,05,19,12.00
2006,08,24,05,20,12.00
2006,08,24,05,21,12.00
2006,08,24,05,22,12.00
2006,08,24,05,23,12.00
2006,08,24,05,24,12.00
2006,08,24,05,25,12.00
2006,08,24,05,26,12.00
2006,08,24,05,27,12.00
2006,08,24,05,28,12.00
2006,08,24,05,29,12.00
2006,08,24,05,30,12.00
2006,08,24,05,31,12.00
2006,08,24,05,32,12.00
2006,08,24,05,33,12.00
2006,08,24,05,34,12.00
2006,08,24,05,35,12.00
2006,08,24,05,36,12.00
2006,08,24,05,37,12.00
2006,08,24,05,38,12.00
2006,08,24,05,39,12.00
2006,08,24,05,40,12.10
2006,08,24,05,41,12.10
2006,08,24,05,42,12.10
2006,08,24,05,43,12.10
2006,08,24,05,44,12.20
2006,08,24,05,45,12.20
2006,08,24,05,46,12.30
2006,08,24,05,47,12.30
2006,08,24,05,48,12.30
2006,08,24,05,49,12.30
2006,08,24,05,50,12.30
2006,08,24,05,51,12.30
2006,08,24,05,52,12.30
2006,08,24,05,53,12.30
2006,08,24,05,54,12.30
2006,08,24,05,55,12.30
2006,08,24,05,56,12.30
2006,08,24,05,57,12.30
2006,08,24,05,58,12.30
2006,08,24,05,59,12.30
2006,08,24,06,00,12.30
2006,08,24,06,01,12.30
2006,08,24,06,02,12.30
2006,08,24,06,03,12.30
2006,08,24,06,04,12.30
2006,08,24,06,05,12.40
2006,08,24,06,06,12.40
2006,08,24,06,07,12.40
2006,08,24,06,08,12.40
2006,08,24,06,09,12.40
2006,08,24,06,10,12.40
2006,08,24,06,11,12.50
2006,08,24,06,12,12.50
2006,08,24,06,13,12.50
2006,08,24,06,14,12.60
2006,08,24,06,15,12.60
2006,08,24,06,16,12.60
2006,08,24,06,17,12.60
2006,08,24,06,18,12.70
2006,08,24,06,19,12.70
2006,08,24,06,20,12.70
2006,08,24,06,21,12.70
2006,08,24,06,22,12.80
2006,08,24,06,23,12.80
2006,08,24,06,24,12.80
2006,08,24,06,25,12.80
2006,08,24,06,26,12.80
2006,08,24,06,27,12.80
2006,08,24,06,28,12.80
2006,08,24,06,29,12.80
2006,08,24,06,30,12.80
2006,08,24,06,31,12.80
2006,08,24,06,32,12.80
2006,08,24,06,33,12.80
2006,08,24,06,34,12.90
2006,08,24,06,35,12.90
2006,08,24,06,36,12.90
2006,08,24,06,37,12.90
2006,08,24,06,38,12.90
2006,08,24,06,39,12.90
2006,08,24,06,40,12.90
2006,08,24,06,41,12.90
2006,08,24,06,42,12.90
2006,08,24,06,43,12.90
2006,08,24,06,44,12.90
2006,08,24,06,45,12.90
2006,08,24,06,46,12.90
2006,08,24,06,47,12.90
2006,08,24,06,48,12.90
2006,08,24,06,49,12.90
2006,08,24,06,50,12.90
2006,08,24,06,51,12.90
2006,08,24,06,52,12.90
2006,08,24,06,53,12.90
2006,08,24,06,54,12.90
2006,08,24,06,55,12.90
2006,08,24,06,56,12.90
2006,08,24,06,57,12.90
2006,08,24,06,58,12.90
2006,08,24,06,59,12.90
2006,08,24,07,00,12.90
2006,08,24,07,01,13.00
2006,08,24,07,02,13.00
2006,08,24,07,03,13.00
2006,08,24,07,04,13.00
2006,08,24,07,05,13.00
2006,08,24,07,06,13.00
2006,08,24,07,07,13.00
2006,08,24,07,08,13.00
2006,08,24,07,09,13.00
2006,08,24,07,10,13.00
2006,08,24,07,11,13.10
2006,08,24,07,12,13.10
2006,08,24,07,13,13.10
2006,08,24,07,14,13.10
2006,08,24,07,15,13.20
2006,08,24,07,16,13.20
2006,08,24,07,17,13.20
2006,08,24,07,18,13.20
2006,08,24,07,19,13.20
2006,08,24,07,20,13.20
2006,08,24,07,21,13.30
2006,08,24,07,22,13.30
2006,08,24,07,23,13.30
2006,08,24,07,24,13.30
2006,08,24,07,25,13.30
2006,08,24,07,26,13.30
2006,08,24,07,27,13.30
2006,08,24,07,28,13.30
2006,08,24,07,29,13.30
2006,08,24,07,30,13.40
2006,08,24,07,31,13.40
2006,08,24,07,32,13.40
2006,08,24,07,33,13.40
2006,08,24,07,34,13.40
2006,08,24,07,35,13.50
2006,08,24,07,36,13.50
2006,08,24,07,37,13.50
2006,08,24,07,38,13.50
2006,08,24,07,39,13.40
2006,08,24,07,40,13.40
2006,08,24,07,41,13.40
2006,08,24,07,42,13.40
2006,08,24,07,43,13.40
2006,08,24,07,44,13.40
2006,08,24,07,45,13.40
2006,08,24,07,46,13.40
2006,08,24,07,47,13.40
2006,08,24,07,48,13.50
2006,08,24,07,49,13.50
2006,08,24,07,50,13.50
2006,08,24,07,51,13.50
2006,08,24,07,52,13.50
2006,08,24,07,53,13.50
2006,08,24,07,54,13.50
2006,08,24,07,55,13.50
2006,08,24,07,56,13.50
2006,08,24,07,57,13.50
2006,08,24,07,58,13.50
2006,08,24,07,59,13.50
2006,08,24,08,00,13.60
2006,08,24,08,01,13.60
2006,08,24,08,02,13.60
2006,08,24,08,03,13.60
2006,08,24,08,04,13.60
2006,08,24,08,05,13.60
2006,08,24,08,06,13.60
2006,08,24,08,07,13.70
2006,08,24,08,08,13.70
2006,08,24,08,09,13.70
2006,08,24,08,10,13.70
2006,08,24,08,11,13.70
2006,08,24,08,12,13.70
2006,08,24,08,13,13.70
2006,08,24,08,14,13.80
2006,08,24,08,15,13.80
2006,08,24,08,16,13.80
2006,08,24,08,17,13.90
2006,08,24,08,18,13.90
2006,08,24,08,19,13.90
2006,08,24,08,20,14.00
2006,08,24,08,21,14.00
2006,08,24,08,22,14.00
2006,08,24,08,23,14.10
2006,08,24,08,24,14.10
2006,08,24,08,25,14.10
2006,08,24,08,26,14.10
2006,08,24,08,27,14.20
2006,08,24,08,28,14.20
2006,08,24,08,29,14.20
2006,08,24,08,30,14.20
2006,08,24,08,31,14.20
2006,08,24,08,32,14.20
2006,08,24,08,33,14.20
2006,08,24,08,34,14.20
2006,08,24,08,35,14.20
2006,08,24,08,36,14.20
2006,08,24,08,37,14.20
2006,08,24,08,38,14.20
2006,08,24,08,39,14.20
2006,08,24,08,40,14.20
2006,08,24,08,41,14.20
2006,08,24,08,42,14.30
2006,08,24,08,43,14.30
2006,08,24,08,44,14.30
2006,08,24,08,45,14.40
2006,08,24,08,46,14.40
2006,08,24,08,47,14.40
2006,08,24,08,48,14.40
2006,08,24,08,49,14.50
2006,08,24,08,50,14.50
2006,08,24,08,51,14.50
2006,08,24,08,52,14.50
2006,08,24,08,53,14.60
2006,08,24,08,54,14.60
2006,08,24,08,55,14.60
2006,08,24,08,56,14.70
2006,08,24,08,57,14.70
2006,08,24,08,58,14.70
2006,08,24,08,59,14.80
2006,08,24,09,00,14.80
2006,08,24,09,01,14.80
2006,08,24,09,02,14.80
2006,08,24,09,03,14.80
2006,08,24,09,04,14.80
2006,08,24,09,05,14.80
2006,08,24,09,06,14.90
2006,08,24,09,07,14.90
2006,08,24,09,08,14.90
2006,08,24,09,09,14.90
2006,08,24,09,10,15.00
2006,08,24,09,11,15.00
2006,08,24,09,12,15.00
2006,08,24,09,13,15.10
2006,08,24,09,14,15.10
2006,08,24,09,15,15.10
2006,08,24,09,16,15.20
2006,08,24,09,17,15.20
2006,08,24,09,18,15.30
2006,08,24,09,19,15.30
2006,08,24,09,20,15.30
2006,08,24,09,21,15.30
2006,08,24,09,22,15.30
2006,08,24,09,23,15.30
2006,08,24,09,24,15.30
2006,08,24,09,25,15.30
2006,08,24,09,26,15.40
2006,08,24,09,27,15.40
2006,08,24,09,28,15.50
2006,08,24,09,29,15.50
2006,08,24,09,30,15.60
2006,08,24,09,31,15.70
2006,08,24,09,32,15.80
2006,08,24,09,33,15.80
2006,08,24,09,34,15.90
2006,08,24,09,35,15.80
2006,08,24,09,36,15.80
2006,08,24,09,37,15.80
2006,08,24,09,38,15.80
2006,08,24,09,39,15.90
2006,08,24,09,40,15.90
2006,08,24,09,41,15.90
2006,08,24,09,42,15.90
2006,08,24,09,43,16.10
2006,08,24,09,44,16.10
2006,08,24,09,45,16.00
2006,08,24,09,46,15.90
2006,08,24,09,47,15.80
2006,08,24,09,48,15.80
2006,08,24,09,49,15.80
2006,08,24,09,50,15.80
2006,08,24,09,51,15.80
2006,08,24,09,52,15.90
2006,08,24,09,53,15.90
2006,08,24,09,54,16.00
2006,08,24,09,55,16.10
2006,08,24,09,56,16.10
2006,08,24,09,57,16.10
2006,08,24,09,58,16.10
2006,08,24,09,59,16.10
2006,08,24,10,00,16.20
2006,08,24,10,01,16.20
2006,08,24,10,02,16.20
2006,08,24,10,03,16.30
2006,08,24,10,04,16.30
2006,08,24,10,05,16.40
2006,08,24,10,06,16.40
2006,08,24,10,07,16.40
2006,08,24,10,08,16.40
2006,08,24,10,09,16.40
2006,08,24,10,10,16.40
2006,08,24,10,11,16.40
2006,08,24,10,12,16.40
2006,08,24,10,13,16.40
2006,08,24,10,14,16.40
2006,08,24,10,15,16.50
2006,08,24,10,16,16.50
2006,08,24,10,17,16.40
2006,08,24,10,18,16.40
2006,08,24,10,19,16.40
2006,08,24,10,20,16.40
2006,08,24,10,21,16.40
2006,08,24,10,22,16.40
2006,08,24,10,23,16.40
2006,08,24,10,24,16.40
2006,08,24,10,25,16.40
2006,08,24,10,26,16.40
2006,08,24,10,27,16.40
2006,08,24,10,28,16.50
2006,08,24,10,29,16.60
2006,08,24,10,30,16.60
2006,08,24,10,31,16.60
2006,08,24,10,32,16.70
2006,08,24,10,33,16.80
2006,08,24,10,34,16.90
2006,08,24,10,35,16.90
2006,08,24,10,36,17.00
2006,08,24,10,37,17.00
2006,08,24,10,38,17.00
2006,08,24,10,39,17.00
2006,08,24,10,40,17.10
2006,08,24,10,41,17.10
2006,08,24,10,42,17.20
2006,08,24,10,43,17.20
2006,08,24,10,44,17.20
2006,08,24,10,45,17.20
2006,08,24,10,46,17.10
2006,08,24,10,47,17.10
2006,08,24,10,48,17.10
2006,08,24,10,49,17.00
2006,08,24,10,50,16.90
2006,08,24,10,51,16.80
2006,08,24,10,52,16.70
2006,08,24,10,53,16.70
2006,08,24,10,54,16.70
2006,08,24,10,55,16.70
2006,08,24,10,56,16.70
2006,08,24,10,57,16.60
2006,08,24,10,58,16.60
2006,08,24,10,59,16.60
2006,08,24,11,00,16.60
2006,08,24,11,01,16.60
2006,08,24,11,02,16.70
2006,08,24,11,03,16.70
2006,08,24,11,04,16.70
2006,08,24,11,05,16.80
2006,08,24,11,06,16.80
2006,08,24,11,07,16.80
2006,08,24,11,08,16.80
2006,08,24,11,09,16.80
2006,08,24,11,10,16.80
2006,08,24,11,11,16.80
2006,08,24,11,12,16.70
2006,08,24,11,13,16.70
2006,08,24,11,14,16.70
2006,08,24,11,15,16.70
2006,08,24,11,16,16.70
2006,08,24,11,17,16.70
2006,08,24,11,18,16.70
2006,08,24,11,19,16.70
2006,08,24,11,20,16.70
2006,08,24,11,21,16.70
2006,08,24,11,22,16.70
2006,08,24,11,23,16.70
2006,08,24,11,24,16.70
2006,08,24,11,25,16.60
2006,08,24,11,26,16.60
2006,08,24,11,27,16.60
2006,08,24,11,28,16.50
2006,08,24,11,29,16.40
2006,08,24,11,30,16.40
2006,08,24,11,31,16.40
2006,08,24,11,32,16.40
2006,08,24,11,33,16.40
2006,08,24,11,34,16.40
2006,08,24,11,35,16.40
2006,08,24,11,36,16.40
2006,08,24,11,37,16.40
2006,08,24,11,38,16.50
2006,08,24,11,39,16.60
2006,08,24,11,40,16.60
2006,08,24,11,41,16.70
2006,08,24,11,42,16.70
2006,08,24,11,43,16.70
2006,08,24,11,44,16.80
2006,08,24,11,45,16.80
2006,08,24,11,46,16.80
2006,08,24,11,47,16.80
2006,08,24,11,48,16.80
2006,08,24,11,49,16.80
2006,08,24,11,50,16.80
2006,08,24,11,51,16.80
2006,08,24,11,52,16.90
2006,08,24,11,53,16.90
2006,08,24,11,54,16.90
2006,08,24,11,55,16.90
2006,08,24,11,56,16.90
2006,08,24,11,57,17.00
2006,08,24,11,58,17.00
2006,08,24,11,59,17.00
2006,08,24,12,00,17.00
2006,08,24,12,01,16.90
2006,08,24,12,02,16.80
2006,08,24,12,03,16.80
2006,08,24,12,04,16.80
2006,08,24,12,05,16.90
2006,08,24,12,06,17.00
2006,08,24,12,07,17.10
2006,08,24,12,08,17.20
2006,08,24,12,09,17.30
2006,08,24,12,10,17.30
2006,08,24,12,11,17.30
2006,08,24,12,12,17.30
2006,08,24,12,13,17.30
2006,08,24,12,14,17.30
2006,08,24,12,15,17.40
2006,08,24,12,16,17.40
2006,08,24,12,17,17.50
2006,08,24,12,18,17.50
2006,08,24,12,19,17.40
2006,08,24,12,20,17.40
2006,08,24,12,21,17.40
2006,08,24,12,22,17.40
2006,08,24,12,23,17.50
2006,08,24,12,24,17.50
2006,08,24,12,25,17.70
2006,08,24,12,26,17.70
2006,08,24,12,27,17.70
2006,08,24,12,28,17.70
2006,08,24,12,29,17.70
2006,08,24,12,30,17.70
2006,08,24,12,31,17.70
2006,08,24,12,32,17.80
2006,08,24,12,33,17.80
2006,08,24,12,34,17.90
2006,08,24,12,35,17.90
2006,08,24,12,36,17.90
2006,08,24,12,37,17.90
2006,08,24,12,38,17.90
2006,08,24,12,39,17.90
2006,08,24,12,40,17.90
2006,08,24,12,41,17.80
2006,08,24,12,42,17.80
2006,08,24,12,43,17.80
2006,08,24,12,44,17.80
2006,08,24,12,45,17.90
2006,08,24,12,46,17.90
2006,08,24,12,47,17.90
2006,08,24,12,48,17.90
2006,08,24,12,49,17.90
2006,08,24,12,50,17.90
2006,08,24,12,51,17.90
2006,08,24,12,52,17.90
2006,08,24,12,53,17.90
2006,08,24,12,54,17.90
2006,08,24,12,55,17.90
2006,08,24,12,56,17.90
2006,08,24,12,57,17.90
2006,08,24,12,58,17.90
2006,08,24,12,59,17.90
2006,08,24,13,00,17.90
2006,08,24,13,01,18.00
2006,08,24,13,02,18.00
2006,08,24,13,03,18.10
2006,08,24,13,04,18.00
2006,08,24,13,05,17.90
2006,08,24,13,06,17.90
2006,08,24,13,07,17.90
2006,08,24,13,08,17.90
2006,08,24,13,09,17.90
2006,08,24,13,10,17.90
2006,08,24,13,11,17.90
2006,08,24,13,12,18.00
2006,08,24,13,13,18.10
2006,08,24,13,14,18.10
2006,08,24,13,15,18.10
2006,08,24,13,16,18.20
2006,08,24,13,17,18.20
2006,08,24,13,18,18.20
2006,08,24,13,19,18.20
2006,08,24,13,20,18.20
2006,08,24,13,21,18.20
2006,08,24,13,22,18.20
2006,08,24,13,23,18.20
2006,08,24,13,24,18.20
2006,08,24,13,25,18.30
2006,08,24,13,26,18.40
2006,08,24,13,27,18.40
2006,08,24,13,28,18.40
2006,08,24,13,29,18.40
2006,08,24,13,30,18.50
2006,08,24,13,31,18.40
2006,08,24,13,32,18.30
2006,08,24,13,33,18.30
2006,08,24,13,34,18.20
2006,08,24,13,35,18.20
2006,08,24,13,36,18.20
2006,08,24,13,37,18.20
2006,08,24,13,38,18.30
2006,08,24,13,39,18.20
2006,08,24,13,40,18.30
2006,08,24,13,41,18.40
2006,08,24,13,42,18.60
2006,08,24,13,43,18.60
2006,08,24,13,44,18.70
2006,08,24,13,45,18.90
2006,08,24,13,46,19.00
2006,08,24,13,47,18.90
2006,08,24,13,48,18.80
2006,08,24,13,49,18.70
2006,08,24,13,50,18.60
2006,08,24,13,51,18.50
2006,08,24,13,52,18.40
2006,08,24,13,53,18.30
2006,08,24,13,54,18.40
2006,08,24,13,55,18.40
2006,08,24,13,56,18.60
2006,08,24,13,57,18.70
2006,08,24,13,58,18.60
2006,08,24,13,59,18.70
2006,08,24,14,00,18.80
2006,08,24,14,01,19.00
2006,08,24,14,02,19.10
2006,08,24,14,03,19.10
2006,08,24,14,04,18.90
2006,08,24,14,05,18.90
2006,08,24,14,06,18.90
2006,08,24,14,07,19.10
2006,08,24,14,08,19.10
2006,08,24,14,09,19.20
2006,08,24,14,10,19.20
2006,08,24,14,11,19.10
2006,08,24,14,12,19.20
2006,08,24,14,13,19.20
2006,08,24,14,14,19.20
2006,08,24,14,15,19.20
2006,08,24,14,16,19.20
2006,08,24,14,17,19.20
2006,08,24,14,18,19.10
2006,08,24,14,19,18.90
2006,08,24,14,20,18.90
2006,08,24,14,21,18.90
2006,08,24,14,22,18.90
2006,08,24,14,23,18.80
2006,08,24,14,24,18.80
2006,08,24,14,25,18.80
2006,08,24,14,26,18.70
2006,08,24,14,27,18.70
2006,08,24,14,28,18.70
2006,08,24,14,29,18.70
2006,08,24,14,30,18.70
2006,08,24,14,31,18.60
2006,08,24,14,32,18.60
2006,08,24,14,33,18.60
2006,08,24,14,34,18.70
2006,08,24,14,35,18.70
2006,08,24,14,36,18.70
2006,08,24,14,37,18.80
2006,08,24,14,38,18.80
2006,08,24,14,39,18.80
2006,08,24,14,40,18.80
2006,08,24,14,41,18.90
2006,08,24,14,42,19.00
2006,08,24,14,43,18.90
2006,08,24,14,44,18.90
2006,08,24,14,45,18.80
2006,08,24,14,46,18.70
2006,08,24,14,47,18.70
2006,08,24,14,48,18.70
2006,08,24,14,49,18.60
2006,08,24,14,50,18.70
2006,08,24,14,51,18.80
2006,08,24,14,52,18.90
2006,08,24,14,53,18.90
2006,08,24,14,54,18.90
2006,08,24,14,55,18.80
2006,08,24,14,56,18.70
2006,08,24,14,57,18.70
2006,08,24,14,58,18.70
2006,08,24,14,59,18.70
2006,08,24,15,00,18.60
2006,08,24,15,01,18.60
2006,08,24,15,02,18.80
2006,08,24,15,03,18.90
2006,08,24,15,04,18.90
2006,08,24,15,05,18.90
2006,08,24,15,06,18.90
2006,08,24,15,07,18.90
2006,08,24,15,08,18.80
2006,08,24,15,09,18.80
2006,08,24,15,10,18.90
2006,08,24,15,11,18.80
2006,08,24,15,12,18.80
2006,08,24,15,13,18.90
2006,08,24,15,14,18.90
2006,08,24,15,15,18.80
2006,08,24,15,16,18.70
2006,08,24,15,17,18.70
2006,08,24,15,18,18.80
2006,08,24,15,19,18.70
2006,08,24,15,20,18.60
2006,08,24,15,21,18.60
2006,08,24,15,22,18.70
2006,08,24,15,23,18.80
2006,08,24,15,24,18.80
2006,08,24,15,25,18.80
2006,08,24,15,26,18.80
2006,08,24,15,27,18.70
2006,08,24,15,28,18.70
2006,08,24,15,29,18.80
2006,08,24,15,30,18.80
2006,08,24,15,31,18.70
2006,08,24,15,32,18.60
2006,08,24,15,33,18.50
2006,08,24,15,34,18.40
2006,08,24,15,35,18.30
2006,08,24,15,36,18.20
2006,08,24,15,37,18.30
2006,08,24,15,38,18.40
2006,08,24,15,39,18.40
2006,08,24,15,40,18.50
2006,08,24,15,41,18.50
2006,08,24,15,42,18.50
2006,08,24,15,43,18.40
2006,08,24,15,44,18.40
2006,08,24,15,45,18.50
2006,08,24,15,46,18.50
2006,08,24,15,47,18.40
2006,08,24,15,48,18.40
2006,08,24,15,49,18.40
2006,08,24,15,50,18.40
2006,08,24,15,51,18.40
2006,08,24,15,52,18.50
2006,08,24,15,53,18.50
2006,08,24,15,54,18.60
2006,08,24,15,55,18.60
2006,08,24,15,56,18.60
2006,08,24,15,57,18.60
2006,08,24,15,58,18.70
2006,08,24,15,59,18.80
2006,08,24,16,00,18.90
2006,08,24,16,01,18.90
2006,08,24,16,02,19.00
2006,08,24,16,03,19.10
2006,08,24,16,04,19.10
2006,08,24,16,05,19.00
2006,08,24,16,06,18.90
2006,08,24,16,07,18.90
2006,08,24,16,08,18.90
2006,08,24,16,09,18.80
2006,08,24,16,10,18.80
2006,08,24,16,11,18.80
2006,08,24,16,12,18.90
2006,08,24,16,13,18.90
2006,08,24,16,14,18.90
2006,08,24,16,15,18.90
2006,08,24,16,16,18.90
2006,08,24,16,17,18.90
2006,08,24,16,18,18.90
2006,08,24,16,19,18.90
2006,08,24,16,20,18.90
2006,08,24,16,21,18.90
2006,08,24,16,22,18.90
2006,08,24,16,23,19.10
2006,08,24,16,24,19.00
2006,08,24,16,25,18.90
2006,08,24,16,26,19.00
2006,08,24,16,27,18.90
2006,08,24,16,28,18.70
2006,08,24,16,29,18.60
2006,08,24,16,30,18.50
2006,08,24,16,31,18.50
2006,08,24,16,32,18.50
2006,08,24,16,33,18.50
2006,08,24,16,34,18.60
2006,08,24,16,35,18.70
2006,08,24,16,36,18.70
2006,08,24,16,37,18.60
2006,08,24,16,38,18.50
2006,08,24,16,39,18.40
2006,08,24,16,40,18.40
2006,08,24,16,41,18.30
2006,08,24,16,42,18.30
2006,08,24,16,43,18.40
2006,08,24,16,44,18.60
2006,08,24,16,45,18.70
2006,08,24,16,46,18.80
2006,08,24,16,47,18.80
2006,08,24,16,48,18.80
2006,08,24,16,49,18.80
2006,08,24,16,50,18.90
2006,08,24,16,51,18.80
2006,08,24,16,52,18.80
2006,08,24,16,53,18.80
2006,08,24,16,54,18.70
2006,08,24,16,55,18.70
2006,08,24,16,56,18.70
2006,08,24,16,57,18.90
2006,08,24,16,58,18.90
2006,08,24,16,59,18.90
2006,08,24,17,00,18.90
2006,08,24,17,01,18.90
2006,08,24,17,02,18.80
2006,08,24,17,03,18.80
2006,08,24,17,04,18.70
2006,08,24,17,05,18.70
2006,08,24,17,06,18.70
2006,08,24,17,07,18.70
2006,08,24,17,08,18.70
2006,08,24,17,09,18.70
2006,08,24,17,10,18.70
2006,08,24,17,11,18.70
2006,08,24,17,12,18.60
2006,08,24,17,13,18.60
2006,08,24,17,14,18.60
2006,08,24,17,15,18.60
2006,08,24,17,16,18.60
2006,08,24,17,17,18.50
2006,08,24,17,18,18.60
2006,08,24,17,19,18.60